Regional Weather Roundup
Issued by NWS

Home | Current Version | Previous Version | Text Only | Print | Product List | Glossary Off
Versions: 1 2 3 4 5 6 7 8 9 10 11 12 13 14 15 16 17 18 19 20 21 22 23 24 25 26 27 28 29 30 31 32 33 34 35 36 37 38 39 40 41 42 43 44 45 46 47 48 49 50

000
ASUS44 KMEG 041110
RWRTN
TENNESSEE HOURLY STATE WEATHER ROUNDUP
NATIONAL WEATHER SERVICE MEMPHIS TN
600 AM CDT TUE AUG 04 2015

TNZ002-004-019-021-049-052-054-088>092-041200-
WEST TENNESSEE

CITY           SKY/WX    TMP DP  RH WIND       PRES   REMARKS
MEMPHIS INTL   PTCLDY    79  69  71 CALM      29.98R
NWS MEMPHIS      N/A     73 N/A N/A MISG        N/A
JACKSON        PTCLDY    70  67  90 CALM      29.98R
DYERSBURG        N/A    N/A N/A N/A MISG        N/A
PARIS          CLEAR     68  66  94 CALM      29.99R
LEXINGTON      CLEAR     70  68  94 CALM      29.98R
$$

TNZ008-025-027-028-033-062-065-066-041200-
NORTH MIDDLE TENNESSEE

CITY           SKY/WX    TMP DP  RH WIND       PRES   REMARKS
NASHVILLE      PTCLDY    72  68  87 CALM      29.99R
CLARKSVILLE    CLEAR     70  68  93 CALM      29.98R FOG
SMYRNA         PTCLDY    70  69  96 CALM      30.00R
CROSSVILLE     CLEAR     66  64  93 CALM      30.07R FOG
$$

TNZ061-075-076-078-094-096-097-041200-
SOUTH MIDDLE TENNESSEE

CITY           SKY/WX    TMP DP  RH WIND       PRES   REMARKS
FAYETTEVILLE   CLEAR     70  68  94 CALM      30.02R
TULLAHOMA      CLEAR     66  64  94 CALM      30.04R
WINCHESTER     CLEAR     66  64  94 CALM      30.03R
MCMINNVILLE      N/A     66  66 100 CALM      30.03R VSB 1/2
COLUMBIA       CLEAR    N/A N/A N/A CALM      29.99R
SHELBYVILLE    CLEAR     70  70 100 CALM      30.02R
$$

TNZ017-018-042-046-047-041200-
NORTHEAST TENNESSEE

CITY           SKY/WX    TMP DP  RH WIND       PRES   REMARKS
TRI CITIES     MOCLDY    65  62  90 CALM      30.04R
ELIZABETHTON   SUNNY     61  57  88 NE3       30.06R
$$

TNZ012-013-036-069-073-074-041200-
CENTRAL EAST TENNESSEE

CITY           SKY/WX    TMP DP  RH WIND       PRES   REMARKS
KNOXVILLE      PTCLDY    69  63  81 CALM      30.01R
OAK RIDGE      CLEAR     69  66  90 CALM      30.03R
GATLINBURG     SUNNY     63  59  88 CALM      30.02R
MORRISTOWN     SUNNY     70  63  78 CALM      30.04R
$$

TNZ083-085-099-041200-
SOUTHEAST TENNESSEE

CITY           SKY/WX    TMP DP  RH WIND       PRES   REMARKS
CHATTANOOGA    PTCLDY    70  65  84 CALM      30.01R
$$

SKY/WX REPORTED AS FAIR MEANS FEW OR NO CLOUDS BELOW
12 THOUSAND FEET.




USA.gov is the U.S. government's official web portal to all federal, state and local government web resources and services.